Time,TemperatureF,DewpointF,PressureIn,WindDirection,WindDirectionDegrees,WindSpeedMPH,WindSpeedGustMPH,Humidity,HourlyPrecipIn,Conditions,Clouds,dailyrainin,SolarRadiationWatts/m^2,SoftwareType,DateUTC
2013-10-29 00:04:00,27.0,24.0,-100.00,NE,48,2.0,5.0,89,0.00,,,0.00,0.000000,,2013-10-29 05:04:00,
2013-10-29 00:06:00,25.0,23.0,-100.00,NNE,32,1.0,4.0,93,0.00,,,0.00,0.000000,,2013-10-29 05:06:00,
2013-10-29 00:45:00,25.0,23.0,-100.00,NNE,32,1.0,4.0,93,0.00,,,0.00,0.000000,,2013-10-29 05:45:00,
2013-10-29 00:52:00,25.0,23.0,-100.00,NNE,32,1.0,4.0,93,0.00,,,0.00,0.000000,,2013-10-29 05:52:00,
2013-10-29 01:44:00,23.0,21.0,-100.00,NNE,29,0.0,4.0,92,0.00,,,0.00,0.000000,,2013-10-29 06:44:00,
2013-10-29 01:53:00,23.0,21.0,-100.00,NNE,29,0.0,4.0,92,0.00,,,0.00,0.000000,,2013-10-29 06:53:00,
2013-10-29 02:01:00,23.0,21.0,-100.00,NNE,29,0.0,4.0,92,0.00,,,0.00,0.000000,,2013-10-29 07:01:00,
2013-10-29 02:44:00,24.0,23.0,-100.00,NE,46,2.0,4.0,95,0.00,,,0.00,0.000000,,2013-10-29 07:44:00,
2013-10-29 02:55:00,24.0,23.0,-100.00,NE,46,2.0,4.0,95,0.00,,,0.00,0.000000,,2013-10-29 07:55:00,
2013-10-29 03:05:00,24.0,23.0,-100.00,NE,46,2.0,4.0,95,0.00,,,0.00,0.000000,,2013-10-29 08:05:00,
2013-10-29 03:42:00,25.0,24.0,-100.00,NE,54,1.0,5.0,94,0.00,,,0.00,0.000000,,2013-10-29 08:42:00,
2013-10-29 03:52:00,25.0,24.0,-100.00,NE,54,1.0,5.0,94,0.00,,,0.00,0.000000,,2013-10-29 08:52:00,
2013-10-29 04:02:00,25.0,24.0,-100.00,NE,54,1.0,5.0,94,0.00,,,0.00,0.000000,,2013-10-29 09:02:00,
2013-10-29 04:43:00,26.0,24.0,-100.00,NNE,24,1.0,4.0,93,0.00,,,0.00,0.000000,,2013-10-29 09:43:00,
2013-10-29 04:53:00,26.0,24.0,-100.00,NNE,24,1.0,4.0,93,0.00,,,0.00,0.000000,,2013-10-29 09:53:00,
2013-10-29 05:03:00,26.0,24.0,-100.00,NNE,24,1.0,4.0,93,0.00,,,0.00,0.000000,,2013-10-29 10:03:00,
2013-10-29 05:42:00,27.0,25.0,-100.00,NNE,26,1.0,3.0,91,0.00,,,0.00,0.000000,,2013-10-29 10:42:00,
2013-10-29 05:53:00,27.0,25.0,-100.00,NNE,26,1.0,3.0,91,0.00,,,0.00,0.000000,,2013-10-29 10:53:00,
2013-10-29 06:03:00,27.0,25.0,-100.00,NNE,26,1.0,3.0,91,0.00,,,0.00,0.000000,,2013-10-29 11:03:00,
2013-10-29 06:42:00,28.0,25.0,-100.00,ENE,69,0.0,3.0,90,0.00,,,0.00,0.000000,,2013-10-29 11:42:00,
2013-10-29 06:52:00,28.0,25.0,-100.00,ENE,69,0.0,3.0,90,0.00,,,0.00,0.000000,,2013-10-29 11:52:00,
2013-10-29 07:01:00,28.0,25.0,-100.00,ENE,69,0.0,3.0,90,0.00,,,0.00,0.000000,,2013-10-29 12:01:00,
2013-10-29 07:42:00,29.0,26.0,-100.00,ENE,74,1.0,4.0,88,0.00,,,0.00,0.000000,,2013-10-29 12:42:00,
2013-10-29 07:52:00,29.0,26.0,-100.00,ENE,74,1.0,4.0,88,0.00,,,0.00,0.000000,,2013-10-29 12:52:00,
2013-10-29 08:02:00,29.0,26.0,-100.00,ENE,74,1.0,4.0,88,0.00,,,0.00,0.000000,,2013-10-29 13:02:00,
2013-10-29 08:42:00,30.0,25.0,-100.00,ENE,57,2.0,4.0,82,0.00,,,0.00,1.000000,,2013-10-29 13:42:00,
2013-10-29 08:52:00,30.0,25.0,-100.00,ENE,57,2.0,4.0,82,0.00,,,0.00,1.000000,,2013-10-29 13:52:00,
2013-10-29 09:02:00,30.0,25.0,-100.00,ENE,57,2.0,4.0,82,0.00,,,0.00,1.000000,,2013-10-29 14:02:00,
2013-10-29 09:42:00,31.0,25.0,-100.00,NE,45,3.0,5.0,79,0.00,,,0.00,20.000000,,2013-10-29 14:42:00,
2013-10-29 09:52:00,31.0,25.0,-100.00,NE,45,3.0,5.0,79,0.00,,,0.00,20.000000,,2013-10-29 14:52:00,
2013-10-29 10:02:00,31.0,25.0,-100.00,NE,45,3.0,5.0,79,0.00,,,0.00,20.000000,,2013-10-29 15:02:00,
2013-10-29 10:44:00,33.0,26.0,-100.00,ENE,67,1.0,4.0,75,0.00,,,0.00,34.000000,,2013-10-29 15:44:00,
2013-10-29 10:54:00,33.0,26.0,-100.00,ENE,67,1.0,4.0,75,0.00,,,0.00,34.000000,,2013-10-29 15:54:00,
2013-10-29 11:03:00,33.0,26.0,-100.00,ENE,67,1.0,4.0,75,0.00,,,0.00,34.000000,,2013-10-29 16:03:00,
2013-10-29 11:43:00,36.0,25.0,-100.00,East,84,3.0,8.0,63,0.00,,,0.00,61.000000,,2013-10-29 16:43:00,
2013-10-29 11:53:00,36.0,25.0,-100.00,East,84,3.0,8.0,63,0.00,,,0.00,61.000000,,2013-10-29 16:53:00,
2013-10-29 12:02:00,36.0,25.0,-100.00,East,84,3.0,8.0,63,0.00,,,0.00,61.000000,,2013-10-29 17:02:00,
2013-10-29 12:42:00,36.0,24.0,-100.00,ENE,74,4.0,7.0,62,0.00,,,0.00,64.000000,,2013-10-29 17:42:00,
2013-10-29 12:52:00,36.0,24.0,-100.00,ENE,74,4.0,7.0,62,0.00,,,0.00,64.000000,,2013-10-29 17:52:00,
2013-10-29 13:02:00,36.0,24.0,-100.00,ENE,74,4.0,7.0,62,0.00,,,0.00,64.000000,,2013-10-29 18:02:00,
2013-10-29 13:42:00,37.0,27.0,-100.00,NE,51,5.0,11.0,68,0.00,,,0.00,91.000000,,2013-10-29 18:42:00,
2013-10-29 13:52:00,37.0,27.0,-100.00,NE,51,5.0,11.0,68,0.00,,,0.00,91.000000,,2013-10-29 18:52:00,
2013-10-29 14:02:00,37.0,27.0,-100.00,NE,51,5.0,11.0,68,0.00,,,0.00,91.000000,,2013-10-29 19:02:00,
2013-10-29 14:42:00,35.0,30.0,-100.00,NE,42,6.0,11.0,83,0.00,,,0.00,77.000000,,2013-10-29 19:42:00,
2013-10-29 14:53:00,35.0,30.0,-100.00,NE,42,6.0,11.0,83,0.00,,,0.00,77.000000,,2013-10-29 19:53:00,
2013-10-29 15:02:00,35.0,30.0,-100.00,NE,42,6.0,11.0,83,0.00,,,0.00,77.000000,,2013-10-29 20:02:00,
2013-10-29 15:43:00,35.0,31.0,-100.00,NE,53,7.0,14.0,85,0.00,,,0.00,102.000000,,2013-10-29 20:43:00,
2013-10-29 15:52:00,35.0,31.0,-100.00,NE,53,7.0,14.0,85,0.00,,,0.00,102.000000,,2013-10-29 20:52:00,
2013-10-29 16:01:00,35.0,31.0,-100.00,NE,53,7.0,14.0,85,0.00,,,0.00,102.000000,,2013-10-29 21:01:00,
2013-10-29 16:43:00,36.0,32.0,-100.00,ENE,57,6.0,11.0,85,0.00,,,0.00,70.000000,,2013-10-29 21:43:00,
2013-10-29 16:54:00,36.0,32.0,-100.00,ENE,57,6.0,11.0,85,0.00,,,0.00,70.000000,,2013-10-29 21:54:00,
2013-10-29 17:04:00,36.0,32.0,-100.00,ENE,57,6.0,11.0,85,0.00,,,0.00,70.000000,,2013-10-29 22:04:00,
2013-10-29 17:43:00,35.0,32.0,-100.00,ENE,61,5.0,12.0,87,0.00,,,0.00,25.000000,,2013-10-29 22:43:00,
2013-10-29 17:53:00,35.0,32.0,-100.00,ENE,61,5.0,12.0,87,0.00,,,0.00,25.000000,,2013-10-29 22:53:00,
2013-10-29 18:03:00,35.0,32.0,-100.00,ENE,61,5.0,12.0,87,0.00,,,0.00,25.000000,,2013-10-29 23:03:00,
2013-10-29 18:43:00,35.0,33.0,-100.00,NE,53,4.0,8.0,94,0.01,,,0.01,4.000000,,2013-10-29 23:43:00,
2013-10-29 18:53:00,35.0,33.0,-100.00,NE,53,4.0,8.0,94,0.01,,,0.01,4.000000,,2013-10-29 23:53:00,
2013-10-29 19:02:00,35.0,33.0,-100.00,NE,53,4.0,8.0,94,0.01,,,0.01,4.000000,,2013-10-30 00:02:00,
2013-10-29 19:42:00,35.0,34.0,-100.00,NE,54,2.0,6.0,96,0.01,,,0.02,0.000000,,2013-10-30 00:42:00,
2013-10-29 19:52:00,35.0,34.0,-100.00,NE,54,2.0,6.0,96,0.01,,,0.02,0.000000,,2013-10-30 00:52:00,
2013-10-29 20:01:00,35.0,34.0,-100.00,NE,54,2.0,6.0,96,0.01,,,0.02,0.000000,,2013-10-30 01:01:00,
2013-10-29 20:42:00,34.0,33.0,-100.00,NE,37,3.0,5.0,97,0.00,,,-99.99,0.000000,,2013-10-30 01:42:00,
2013-10-29 20:52:00,34.0,33.0,-100.00,NE,37,3.0,5.0,97,0.00,,,-99.99,0.000000,,2013-10-30 01:52:00,
2013-10-29 21:02:00,34.0,33.0,-100.00,NE,37,3.0,5.0,97,0.00,,,-99.99,0.000000,,2013-10-30 02:02:00,
2013-10-29 21:42:00,35.0,34.0,-100.00,NE,39,3.0,7.0,97,0.01,,,0.03,0.000000,,2013-10-30 02:42:00,
2013-10-29 21:52:00,35.0,34.0,-100.00,NE,39,3.0,7.0,97,0.01,,,0.03,0.000000,,2013-10-30 02:52:00,
2013-10-29 22:02:00,35.0,34.0,-100.00,NE,39,3.0,7.0,97,0.01,,,0.03,0.000000,,2013-10-30 03:02:00,
2013-10-29 22:44:00,35.0,34.0,-100.00,NE,50,3.0,5.0,98,0.01,,,0.04,0.000000,,2013-10-30 03:44:00,
2013-10-29 22:54:00,35.0,34.0,-100.00,NE,50,3.0,5.0,98,0.01,,,0.04,0.000000,,2013-10-30 03:54:00,
2013-10-29 23:03:00,35.0,34.0,-100.00,NE,50,3.0,5.0,98,0.01,,,0.04,0.000000,,2013-10-30 04:03:00,
2013-10-29 23:44:00,35.0,34.0,-100.00,NNE,16,1.0,5.0,98,0.00,,,0.04,0.000000,,2013-10-30 04:44:00,
2013-10-29 23:53:00,35.0,34.0,-100.00,NNE,16,1.0,5.0,98,0.00,,,0.04,0.000000,,2013-10-30 04:53:00,